Location: Stara Lesna
(49.1528°N, 20.2911°E)
Time: 23:04:58
(UTC+02:00)

Okean 1 - Pass Details

Date: 21 September 2019
Orbit: 540 x 554 km, 82.5° (Epoch: 20 October)

Event Time Altitude Azimuth Distance (km) Brightness Sun altitude
Rises 05:15:00 0° 174° (S) 2,687 6.7 -11.8°
Reaches altitude 10° 05:17:10 10° 169° (S) 1,800 5.9 -11.5°
Maximum altitude 05:21:00 49° 94° (E) 709 4.4 -10.9°
Drops below altitude 10° 05:24:51 10° 20° (NNE) 1,820 6.4 -10.3°
Sets 05:27:04 0° 15° (NNE) 2,720 7.3 -9.9°
